Voltar ao catálogo

STARLINK-32004

AtivoComunicaçõesVLEO
NORAD 60151·PAYLOAD·🇺🇸 United States

Lançado Jun 27, 2024 de Cape Canaveral Space Force Station

Loading…

Próximas Passagens (próximas 24 horas)

TLE

AtualizadoSource: CelesTrak SupGP

Época: Sep 14, 2026, 22:50 UTC

1 60151C 24120S   26257.95187500 -.00069336  00000+0 -20482-2 0  2572
2 60151  53.1566 157.8097 0001239  79.6543 348.3719 15.34429886    13

Acompanhe STARLINK-32004 em tempo real com AllMySat

Download on the App Store